Home > Weather > Rockford > Past weeks

Flag for USA Past Weather in Rockford, Illinois, USA — Yesterday and Last 2 Weeks

Now
66 °F

Light rain. Overcast.


Feels Like: 66 °F
Forecast: 66 / 81 °F
Wind: 9 mph from East

Location: Greater Rockford Airport

Current Time: Aug 27, 2016 at 6:56:36 AM

Latest Report: Aug 27, 2016 at 5:54 AM


Visibility: 6 mi

Pressure: 30.04 "Hg

Humidity: 90%

Dew Point: 63 °F

Location of RockfordLocation

Past Weather in Rockford — Graph

°F

Rockford Temperature Yesterday

Maximum temperature yesterday: 79 °F (at 3:54 PM)
Minimum temperature yesterday: 64 °F (at 4:54 AM)
Average temperature yesterday: 71 °F

High & Low Weather Summary for the Past Weeks

 TemperatureHumidityPressure
High86 °F (Aug 17, 3:54 PM)94% (Aug 12, 5:54 AM)30.20 "Hg (Aug 12, 5:54 AM)
Low54 °F (Aug 22, 5:54 AM)43% (Aug 21, 2:54 PM)29.62 "Hg (Aug 20, 11:54 AM)
Average73 °F77%29.98 "Hg
* Reported Aug 12 4:54 AM — Aug 27 4:54 AM, Rockford, Weather by CustomWeather, © 2016

Note: Actual official high and low records may vary slightly from our data, if they occured in-between our weather recording intervals... More about our weather records

Advertising

Rockford Weather History for the Previous 24 Hours

Scroll right to see more
 ConditionsComfort  
Time TempWeatherWind HumidityBarometerVisibility
4:54 AM
Sat, Aug 27
66 °FPassing clouds.5 mph87%30.05 "Hg10 mi
3:54 AM66 °FPassing clouds.6 mph87%30.07 "Hg10 mi
2:54 AM65 °FLight rain. Passing clouds.5 mph91%30.07 "Hg10 mi
1:56 AM65 °FThunderstorms. Mostly cloudy.12 mph94%30.12 "Hg4 mi
12:54 AM67 °FLight rain. Mostly cloudy.6 mph81%30.10 "Hg6 mi
11:54 PM
Fri, Aug 26
68 °FPartly cloudy.8 mph78%30.10 "Hg10 mi
10:54 PM70 °FOvercast.10 mph73%30.10 "Hg10 mi
9:54 PM71 °FPassing clouds.7 mph76%30.12 "Hg10 mi
8:54 PM72 °FPassing clouds.6 mph71%30.13 "Hg10 mi
7:54 PM73 °FBroken clouds.6 mph69%30.12 "Hg10 mi
6:54 PM76 °FPartly sunny.6 mph60%30.10 "Hg10 mi
5:54 PM76 °FPartly sunny.5 mph58%30.11 "Hg10 mi
4:54 PM77 °FMostly cloudy.5 mph54%30.11 "Hg10 mi
3:54 PM79 °FMostly cloudy.6 mph54%30.12 "Hg10 mi
2:54 PM77 °FMostly cloudy.6 mph58%30.12 "Hg10 mi
1:54 PM76 °FMostly cloudy.3 mph58%30.15 "Hg10 mi
12:54 PM76 °FMore clouds than sun.3 mph58%30.16 "Hg10 mi
11:54 AM73 °FOvercast.7 mph64%30.17 "Hg10 mi
10:54 AM73 °FMore clouds than sun.8 mph59%30.17 "Hg10 mi
9:54 AM72 °FMostly cloudy.6 mph61%30.20 "Hg10 mi
8:54 AM70 °FMore clouds than sun.6 mph68%30.19 "Hg10 mi
7:54 AM67 °FMore clouds than sun.6 mph81%30.18 "Hg10 mi
6:54 AM64 °FOvercast.5 mph90%30.17 "Hg10 mi
Weather by CustomWeather, © 2016

See weather overviewHow to use our weather pages